Regional Weather Roundup
Issued by NWS

Home | Current Version | Previous Version | Graphics & Text | Print | Product List | Glossary On
Versions: 1 2 3 4 5 6 7 8 9 10 11 12 13 14 15 16 17 18 19 20 21 22 23 24 25 26 27 28 29 30 31 32 33 34 35 36 37 38 39 40 41 42 43 44 45 46 47 48 49 50
108
ASUS43 KMPX 191501
RWRMN
WEATHER ROUNDUP FOR MINNESOTA
NATIONAL WEATHER SERVICE TWIN CITIES/CHANHASSEN MN
900 AM CST THU JAN 19 2017


NOTE: "FAIR" INDICATES FEW OR NO CLOUDS BELOW 12,000 FEET WITH NO
SIGNIFICANT WEATHER AND/OR OBSTRUCTIONS TO VISIBILITY. N/A MEANS
CURRENT SKY AND/OR WEATHER CONDITIONS ARE NOT AVAILABLE.

MNZ060>063-068>070-191600-
   Twin Cities Metro

CITY           SKY/WX    TMP DP  RH WIND       PRES   REMARKS
TWIN CITIES    SUNNY     33  29  85 SE7       29.81F WCI  27
ST PAUL        SUNNY     32  31  96 SE7       29.83F WCI  26
CRYSTAL        CLEAR     33  29  85 SE5       29.79F WCI  29
LAKEVILLE      SUNNY     30  30 100 S5        29.81S FOG     WCI  25
EDEN PRAIRIE   CLEAR     36  32  85 S8        29.78F
SOUTH ST PAUL  SUNNY     32  32  99 S3        29.82S FOG
LAKE ELMO      FAIR      32  32 100 SE6       29.82F WCI  26
$$
MNZ001>005-007-008-013>017-022>024-027-028-191600-
   Northwest Minnesota

CITY           SKY/WX    TMP DP  RH WIND       PRES   REMARKS
BEMIDJI        FOG       30  30 100 SE10      29.64F VSB 1/2 WCI  21
HALLOCK        CLEAR     25  23  93 S18       29.55S FOG     WCI  11
ROSEAU         CLOUDY    28  25  86 S13       29.58F WCI  18
WARROAD        CLOUDY    28  25  86 S3        29.60S
THIEF RVR FALL SNOW      28  27  96 S10       29.62R VSB 1/4 WCI  19
CROOKSTON      SNOW      30  30 100 S16       29.62R VSB<1/4 WCI  19
FOSSTON        CLOUDY    25  21  86 S6        29.63R FOG     WCI  18
DETROIT LAKES  FOG       34  32  93 S15G21    29.64F VSB 1/4 WCI  24
MOORHEAD       CLEAR     28  27  93 S8        29.63S FOG     WCI  20
PARK RAPIDS    FOG       33  30  88 S12       29.67S VSB 1/4 WCI  24
MAHNOMEN       PTSUNNY   28  27  98 S6        29.63R FOG     WCI  21
$$
MNZ006-009>011-018-025>026-191600-
   North Central Minnesota

CITY           SKY/WX    TMP DP  RH WIND       PRES   REMARKS
BAUDETTE       CLOUDY    27  23  85 CALM      29.62R
FLAG ISLAND    CLOUDY    21  19  93 S13       29.59S WCI   9
INTL FALLS     FOG       28  26  92 S7        29.65F VSB 1   WCI  21
WASKISH        CLOUDY    28  28 100 SE10      29.63F FOG     WCI  19
BIG FORK       FOG       32  30  93 S8        29.69F VSB 1/4 WCI  25
LONGVILLE      FOG       32  32 100 SE6       29.70S VSB 1/4 WCI  26
GRAND RAPIDS   LGT RAIN  33  32  96 S9        29.74S VSB 1/4 WCI  25
CRANE LAKE     FOG       27  27 100 S5        29.72F VSB 1   WCI  21
ORR            FOG       30  27  86 CALM      29.68F VSB 1/4
COOK           FOG       30  30 100 S6        29.72S VSB 1/4 WCI  24
WALKER         FOG       31  31  99 S9        29.68S VSB 3/4 WCI  23
$$
MNZ012-019>021-037-191600-
   Northeast Minnesota

CITY           SKY/WX    TMP DP  RH WIND       PRES   REMARKS
DULUTH         FOG       34  34 100 SW8       29.76S VSB 1/4 WCI  27
ELY            FOG       30  30 100 S6        29.73S VSB 1/2 WCI  24
HIBBING        FOG       31  31 100 S6        29.74S VSB 1/4 WCI  25
EVELETH        FOG       32  32  99 S8        29.75F VSB 1/4 WCI  25
DULUTH HARBOR  CLOUDY    36  34  93 CALM      29.80S
TWO HARBORS    HAZE      36  30  80 SW3       29.76S VSB 1/2
SILVER BAY     FOG       34  34 100 S5        29.77S VSB 1/4 WCI  30
G MARAIS ARPRT SNOW      30  27  86 S6        29.77R VSB<1/4 WCI  24
$$
MNZ029>031-032-039>041-046>048-054>057-064-191600-
   West Central Minnesota

CITY           SKY/WX    TMP DP  RH WIND       PRES   REMARKS
FERGUS FALLS   CLEAR     30  30 100 S14       29.68F WCI  20
WHEATON        CLOUDY    34  34 100 SE15      29.66F WCI  24
MORRIS         CLEAR     30  28  93 SE9       29.68S WCI  22
ALEXANDRIA     CLEAR     32  31  96 S12       29.69F WCI  23
ELBOW LAKE     FAIR      31  31 100 SE17      29.65F FOG     WCI  20
WADENA         FOG       30  30 100 S9        29.67F VSB 1/2 WCI  22
GLENWOOD       CLEAR     30  30 100 S9        29.71F FOG     WCI  22
APPLETON       CLEAR     34  32  93 SE10      29.69F WCI  26
ORTONVILLE     CLOUDY    28  27  93 CALM      29.67S
MADISON        CLEAR     30  30 100 SE8       29.69S WCI  23
WILLMAR        FAIR      30  30 100 SE8       29.75S WCI  23
$$
MNZ033>034-036-042>043-049>051-058-059-191600-
   Central Minnesota

CITY           SKY/WX    TMP DP  RH WIND       PRES   REMARKS
ST CLOUD       CLEAR     27  27 100 SE7       29.76S FOG     WCI  19
SAUK CENTRE    FAIR      29  29  99 SE8       29.73S FOG     WCI  21
PAYNESVILLE    CLEAR     31  31 100 S3        29.74F FOG
AITKIN         FOG       36  30  80 S7        29.73S VSB 3/4
PINE RIVER     MIX PCPN  32  32 100 S6        29.75S VSB<1/4 WCI  26
BRAINERD       CLOUDY    33  33 100 S13       29.73F FOG     WCI  24
STAPLES        CLOUDY    32  32 100 S7        29.70S FOG     WCI  26
LONG PRAIRIE   FAIR      28  28 100 SE7       29.72F FOG     WCI  21
LITTLE FALLS   PTCLDY    30  30 100 SE6       29.74F FOG     WCI  24
LITCHFIELD     CLEAR     34  32  93 S3        29.76S FOG
BUFFALO        CLEAR     33  31  92 SE3       29.79S FOG
MAPLE LAKE     CLEAR     33  33  99 S7        29.77F FOG     WCI  27
HUTCHINSON     CLEAR     33  32  96 CALM      29.77F FOG
$$
MNZ037-044-045-052-053-191600-
   East Central Minnesota

CITY           SKY/WX    TMP DP  RH WIND       PRES   REMARKS
PRINCETON      FOG       28  27  93 CALM      29.78S VSB<1/4
MORA           FOG       28  27  93 CALM      29.80S VSB<1/4
CAMBRIDGE      CLEAR     34  28  80 SE6       29.77S HAZE    WCI  29
RUSH CITY      CLEAR     32  30  93 S7        29.80S FOG     WCI  26
MOOSE LAKE     CLOUDY    32  32 100 S6        29.76S FOG     WCI  26
HINCKLEY       FOG       30  30 100 CALM      29.79S VSB<1/4
CLOQUET        FOG       34  32  93 S8        29.76S VSB 3/4 WCI  27
MCGREGOR       CLOUDY    34  32  93 S7        29.75S VSB 1/2 WCI  28
$$
MNZ071>073-080-081-089-090-097-098-191600-
   Southwest Minnesota

CITY           SKY/WX    TMP DP  RH WIND       PRES   REMARKS
MONTEVIDEO     CLEAR     34  34 100 S7        29.72S WCI  28
GRANITE FALLS  CLEAR     33  32  93 SE8       29.74S WCI  27
CANBY          CLEAR     39  35  85 S9        29.70S
MARSHALL       CLEAR     37  33  85 S12       29.72R
REDWOOD FALLS  CLEAR     34  30  85 S12       29.74S WCI  25
OLIVIA         CLEAR     32  30  93 SE7       29.73S WCI  26
PIPESTONE      CLEAR     34  32  93 S9        29.71R FOG     WCI  26
WINDOM           N/A     34  34 100 SE7       29.74F FOG     WCI  28
WORTHINGTON    CLEAR     36  33  89 S10       29.74F
JACKSON        PTCLDY    32  32 100 SE8       29.77S FOG     WCI  25
TRACY          CLEAR     38  35  89 S16       29.72R
SLAYTON        CLEAR     34  33  94 S10       29.73S WCI  26
$$
MNZ065>067-074>077-082>085-091>093-191600-
   South Central Minnesota

CITY           SKY/WX    TMP DP  RH WIND       PRES   REMARKS
MANKATO        PTSUNNY   32  30  93 S8        29.80S FOG     WCI  25
NEW ULM        FOG       30  30 100 S10       29.77F VSB 1/4 WCI  21
ST JAMES       FOG       32  32 100 SE14      29.79F VSB 1/4 WCI  22
FAIRMONT       MIX PCPN  32  31  96 S10       29.80S VSB 1/4 WCI  24
GLENCOE        CLEAR     35  34  98 S6        29.77S FOG     WCI  29
FARIBAULT      FOG       30  30 100 SE8       29.83R VSB 1/2 WCI  23
OWATONNA       FOG       30  28  93 SE13      29.83R VSB 1/2 WCI  20
WASECA         FOG       32  32 100 SE9       29.83S VSB 1/2 WCI  24
ALBERT LEA     FOG       30  30 100 S9        29.83F VSB<1/4 WCI  22
$$
MNZ078>079-086>088-094>096-191600-
   Southeast Minnesota

CITY           SKY/WX    TMP DP  RH WIND       PRES   REMARKS
ROCHESTER      FOG       29  29 100 S14       29.86R VSB 1/4 WCI  18
RED WING       SUNNY     32  28  86 SE6       29.85S FOG     WCI  26
STANTON        SUNNY     33  30  91 S7        29.81F FOG     WCI  26
DODGE CENTER   FOG       28  28 100 S10       29.84R VSB 1/4 WCI  19
WINONA         CLOUDY    32  32 100 CALM      29.91R FOG
AUSTIN         FOG       30  28  93 S7        29.85F VSB<1/4 WCI  23
PRESTON        FOG       29  28  97 S8        29.88R VSB<1/4 WCI  21
$$
ABBREVIATIONS USED IN REMARKS
   TC - TEMPERATURES IN CELSIUS
  WCI - WIND CHILL INDEX
   HX - HEAT INDEX
  VSB - VISIBILITY
$$




USA.gov is the U.S. government's official web portal to all federal, state and local government web resources and services.